Location: Newark
(22.3060°N, 114.2134°E)
Time: 03:03:20
(UTC+00:00)

Vanguard 2 - Pass Details

Date: 11 August 2021
Orbit: 552 x 2937 km, 32.9° (Epoch: 21 September)

Event Time Altitude Azimuth Distance (km) Brightness Sun altitude
Rises 19:06:27 0° 287° (WNW) 3,363 - -36.2°
Reaches altitude 10° 19:09:48 10° 304° (NW) 2,150 - -35.6°
Maximum altitude 19:13:21 21° 353° (N) 1,374 - -35.0°
Exits shadow 19:15:14 16° 29° (NNE) 1,535 9.7 -34.6°
Drops below altitude 10° 19:16:26 10° 44° (NE) 1,832 10.3 -34.4°
Sets 19:19:01 0° 62° (ENE) 2,714 11.4 -34.0°
